This is the latest recevied weather packets stored in our database for station/object K7LDN-13. If no packets are shown the sender has not sent any weather packets the latest 1 day(s).
| Time | Temp. | Humidity | Pressure | Rain* | Wind** | Luminosity | Snow |
|---|---|---|---|---|---|---|---|
| 1778029849 | 15° C | 46% | 1011.9 hPa | 0 mm | 2.24 m/s, 176° | 106 W/m² | - |
| 1778029548 | 15° C | 46% | 1012 hPa | 0 mm | 4.47 m/s, 156° | 119 W/m² | - |
| 1778029244 | 15.56° C | 46% | 1011.8 hPa | 0 mm | 4.92 m/s, 157° | 130 W/m² | - |
| 1778028941 | 15.56° C | 46% | 1012 hPa | 0 mm | 3.13 m/s, 174° | 145 W/m² | - |
| 1778028637 | 15.56° C | 47% | 1011.9 hPa | 0 mm | 2.24 m/s, 178° | 161 W/m² | - |
| 1778028335 | 15.56° C | 46% | 1011.8 hPa | 0 mm | 2.24 m/s, 123° | 173 W/m² | - |
| 1778028031 | 15.56° C | 47% | 1012.2 hPa | 0 mm | 3.13 m/s, 160° | 188 W/m² | - |
| 1778027728 | 15.56° C | 46% | 1012 hPa | 0 mm | 4.02 m/s, 132° | 207 W/m² | - |
| 1778027424 | 15.56° C | 46% | 1012 hPa | 0 mm | 3.13 m/s, 126° | 220 W/m² | - |
| 1778027120 | 15.56° C | 47% | 1012 hPa | 0 mm | 0.45 m/s, 109° | 232 W/m² | - |
| 1778026816 | 15° C | 47% | 1012.3 hPa | 0 mm | 2.24 m/s, 117° | 246 W/m² | - |
| 1778026512 | 15.56° C | 47% | 1012.2 hPa | 0 mm | 2.24 m/s, 170° | 263 W/m² | - |
| 1778026210 | 15.56° C | 47% | 1012.2 hPa | 0 mm | 2.24 m/s, 136° | 278 W/m² | - |
| 1778025907 | 15.56° C | 47% | 1012.3 hPa | 0 mm | 2.24 m/s, 107° | 300 W/m² | - |
| 1778025605 | 15° C | 47% | 1012.2 hPa | 0 mm | 1.34 m/s, 152° | 313 W/m² | - |
| 1778025302 | 15° C | 49% | 1012 hPa | 0 mm | 2.24 m/s, 153° | 337 W/m² | - |
| 1778024999 | 15° C | 47% | 1012.2 hPa | 0 mm | 1.79 m/s, 127° | 357 W/m² | - |
| 1778024696 | 15° C | 48% | 1012.3 hPa | 0 mm | 1.34 m/s, 160° | 376 W/m² | - |
| 1778024393 | 14.44° C | 50% | 1012.2 hPa | 0 mm | 2.24 m/s, 110° | 391 W/m² | - |
| 1778024090 | 14.44° C | 51% | 1012.4 hPa | 0 mm | 1.34 m/s, 147° | 406 W/m² | - |
| 1778023787 | 14.44° C | 49% | 1012.3 hPa | 0 mm | 2.24 m/s, 181° | 423 W/m² | - |
| 1778023486 | 14.44° C | 53% | 1012.4 hPa | 0 mm | 2.68 m/s, 148° | 445 W/m² | - |
| 1778023183 | 14.44° C | 54% | 1012.5 hPa | 0 mm | 0.89 m/s, 137° | 428 W/m² | - |
| 1778022880 | 13.89° C | 54% | 1012.7 hPa | 0 mm | 1.34 m/s, 184° | 166 W/m² | - |
| 1778022578 | 13.33° C | 54% | 1012.4 hPa | 0 mm | 1.34 m/s, 158° | 130 W/m² | - |
* Rain latest hour (hover to see other rain measurements)
** Current wind speed in m/s (hover to see current wind gust speed)